Location: �clusier
(49.9361°N, 2.7869°E)
Time: 12:47:59
(UTC+00:00)

Centaur D AC-29 - Visible Passes

Search period start: 23 October 2021 00:00
Search period end: 02 November 2021 00:00
Orbit: 571 x 36266 km, 26.8° (Epoch: 22 October)

Date Brightness Start Highest point End Pass type
(mag) Time Alt. Az. Time Alt. Az. Time Alt. Az.
23 Oct 6.7 03:34:08 10° SSW 07:20:36 45° SW 13:09:19 10° SSE visible
24 Oct 7.2 01:08:47 10° SSE 09:23:25 59° SSW 10:39:40 10° SE visible
24 Oct 8.3 23:51:43 10° ESE 06:20:10 52° SE 08:04:23 10° ESE visible
26 Oct 9.6 00:15:05 10° E 03:45:58 28° E 05:16:17 10° E visible
27 Oct 6.9 04:53:13 10° SW 07:39:09 35° SW 14:17:49 10° SSW visible
28 Oct 7.0 02:13:24 10° S 07:07:10 52° SSW 11:51:54 10° SSE visible
29 Oct 7.6 00:02:49 10° SE 07:36:27 60° SSE 09:20:05 10° ESE visible
29 Oct 9.1 23:34:35 10° E 04:56:46 42° ESE 06:40:54 10° E visible
31 Oct 9.8 00:23:53 10° ENE 02:26:11 17° E 03:36:32 10° ENE visible
01 Nov 6.9 03:26:44 10° SSW 06:51:09 44° SW 13:02:15 10° S visible
